Location: Newark
(49.2191°N, 12.6671°E)
Time: 07:34:27
(UTC+00:00)

Explorer 7 - All Passes

Search period start: 28 January 2020 00:00
Search period end: 07 February 2020 00:00
Orbit: 485 x 679 km, 50.3° (Epoch: 28 January)

Date Brightness Start Highest point End Pass type
(mag) Time Alt. Az. Time Alt. Az. Time Alt. Az.
28 Jan - 00:29:11 10° WNW 00:32:57 82° N 00:36:49 10° E night (unlit)
28 Jan - 02:09:43 10° W 02:13:18 40° SSW 02:17:00 10° SE night (unlit)
28 Jan - 19:35:11 10° SSE 19:37:05 13° SE 19:38:57 10° ESE night (unlit)
28 Jan - 21:13:13 10° SW 21:16:56 52° SSE 21:20:35 10° ENE night (unlit)
28 Jan - 22:53:34 10° W 22:57:21 76° N 23:01:08 10° E night (unlit)
29 Jan - 00:34:08 10° WNW 00:37:54 85° SSW 00:41:46 10° ESE night (unlit)
29 Jan - 02:14:48 10° W 02:18:06 28° SW 02:21:29 10° SSE night (unlit)
29 Jan - 19:38:54 10° S 19:41:47 20° SE 19:44:36 10° E night (unlit)
29 Jan - 21:18:01 10° WSW 21:21:48 70° SSE 21:25:33 10° ENE night (unlit)
29 Jan - 22:58:33 10° W 23:02:19 73° N 23:06:06 10° E night (unlit)
30 Jan - 00:39:05 10° WNW 00:42:50 68° SSW 00:46:39 10° ESE night (unlit)
30 Jan - 02:20:03 10° W 02:22:51 20° SW 02:25:42 10° S night (unlit)
30 Jan - 19:43:09 10° SSW 19:46:32 29° SSE 19:49:50 10° E night (unlit)
30 Jan - 21:22:54 10° WSW 21:26:43 87° SSE 21:30:29 10° ENE night (unlit)
30 Jan - 23:03:31 10° W 23:07:17 76° N 23:11:05 10° E night (unlit)
31 Jan - 00:44:03 10° W 00:47:42 50° SSW 00:51:26 10° SE night (unlit)
31 Jan - 02:25:45 10° WSW 02:27:32 13° SW 02:29:21 10° SSW night (unlit)
31 Jan - 19:47:40 10° SW 19:51:20 41° SSE 19:54:54 10° E visible
31 Jan - 21:27:51 10° W 21:31:40 81° N 21:35:26 10° E night (unlit)
31 Jan - 23:08:28 10° WNW 23:12:15 85° N 23:16:03 10° E night (unlit)
01 Feb - 00:49:04 10° W 00:52:32 35° SSW 00:56:04 10° SE night (unlit)
01 Feb - 18:13:50 10° S 18:16:14 16° SE 18:18:37 10° E visible
01 Feb - 19:52:22 10° SW 19:56:11 58° SSE 19:59:54 10° ENE visible
01 Feb - 21:32:50 10° W 21:36:38 74° N 21:40:24 10° E night (unlit)
01 Feb - 23:13:25 10° WNW 23:17:11 80° SSW 23:20:58 10° ESE night (unlit)
02 Feb - 00:54:12 10° W 00:57:18 25° SW 01:00:29 10° SSE night (unlit)
02 Feb - 18:17:47 10° SSW 18:20:58 23° SE 18:24:03 10° E visible
02 Feb - 19:57:12 10° WSW 20:01:05 76° SSE 20:04:50 10° ENE visible
02 Feb - 21:37:48 10° W 21:41:36 74° N 21:45:22 10° E night (unlit)
02 Feb - 23:18:22 10° WNW 23:22:05 62° SSW 23:25:49 10° ESE night (unlit)
03 Feb - 00:59:33 10° W 01:02:02 17° SW 01:04:32 10° S night (unlit)
03 Feb - 18:22:08 10° SSW 18:25:44 33° SSE 18:29:12 10° E visible
03 Feb - 20:02:07 10° WSW 20:06:00 89° NNW 20:09:47 10° ENE visible
03 Feb - 21:42:46 10° W 21:46:35 79° N 21:50:20 10° E night (unlit)
03 Feb - 23:23:20 10° W 23:26:57 45° SSW 23:30:34 10° SE night (unlit)
04 Feb - 01:05:45 10° WSW 01:06:42 11° SW 01:07:39 10° SSW night (unlit)
04 Feb - 16:49:05 10° SSE 16:50:43 12° SE 16:52:20 10° ESE visible
04 Feb - 18:26:44 10° SW 18:30:33 47° SSE 18:34:15 10° E visible
04 Feb - 20:07:05 10° W 20:10:57 78° N 20:14:44 10° E visible
04 Feb - 21:47:43 10° WNW 21:51:32 90° NNE 21:55:18 10° ESE night (unlit)
04 Feb - 23:28:23 10° W 23:31:45 31° SSW 23:35:08 10° SSE night (unlit)
05 Feb - 16:52:33 10° S 16:55:24 19° SE 16:58:10 10° E visible
05 Feb - 18:31:29 10° WSW 18:35:25 64° SSE 18:39:12 10° ENE visible
05 Feb - 20:12:03 10° W 20:15:55 74° N 20:19:41 10° E visible
05 Feb - 21:52:39 10° WNW 21:56:27 74° SSW 22:00:12 10° ESE night (unlit)
05 Feb - 23:33:34 10° W 23:36:30 22° SW 23:39:27 10° SSE night (unlit)
06 Feb - 16:56:41 10° SSW 17:00:08 27° SE 17:03:28 10° E visible
06 Feb - 18:36:20 10° WSW 18:40:19 81° SSE 18:44:08 10° ENE visible
06 Feb - 20:17:02 10° W 20:20:54 75° N 20:24:40 10° E visible
06 Feb - 21:57:37 10° WNW 22:01:20 56° SSW 22:05:01 10° SE night (unlit)
06 Feb - 23:39:05 10° WSW 23:41:12 14° SW 23:43:19 10° S night (unlit)
